This demonstration page uses our WeatherBlox Daily Observations layout. Learn more.

Left ArrowRight Arrow

39.51506, -84.39828

Hourly Observations for January 26, 2022

Temp ( °F °C ) Dew Point ( °F °C ) Humidity (%) Winds ( mph kmh ) Pressure ( in mb ) Visibility ( mi km ) Precip ( " mm )
12:15 am 00:15 Clear 11 -11.8 -2 -19 55 55 N 5 7 30.45 1031 10 16 0.00 0.00
12:35 am 00:35 Clear 10 -12.3 -2 -18.9 58 58 N 5 7 30.45 1031 10 16 0.00 0.00
12:55 am 00:55 Clear 10 -12.5 -2 -19 59 59 N 7 11 30.45 1031 10 16 0.00 0.00
1:15 am 01:15 Clear 10 -12.5 -3 -19.2 58 58 N 5 7 30.46 1032 10 16 0.00 0.00
1:35 am 01:35 Clear 9 -12.8 -3 -19.5 58 58 NNE 5 7 30.46 1032 10 16 0.00 0.00
1:55 am 01:55 Clear 9 -12.9 -3 -19.6 58 58 N 3 6 30.46 1032 10 16 0.00 0.00
2:15 am 02:15 Clear 8 -13.5 -3 -19.5 61 61 N 3 6 30.47 1032 10 16 0.00 0.00
2:35 am 02:35 Clear 8 -13.4 -3 -19.3 61 61 N 7 11 30.47 1032 10 16 0.00 0.00
2:55 am 02:55 Clear 7 -14 -3 -19.4 64 64 NNW 7 11 30.49 1032 10 16 0.00 0.00
3:15 am 03:15 Clear 6 -14.2 -3 -19.7 63 63 NNW 3 6 30.50 1033 10 16 0.00 0.00
3:35 am 03:35 Clear 6 -14.3 -4 -20 62 62 NNW 6 9 30.50 1033 10 16 0.00 0.00
3:55 am 03:55 Clear 6 -14.4 -4 -20 63 63 WNW 5 7 30.51 1033 10 16 0.00 0.00
4:15 am 04:15 Clear 6 -14.7 -4 -19.8 65 65 NW 5 7 30.51 1033 10 16 0.00 0.00
4:35 am 04:35 Clear 6 -14.7 -4 -19.9 65 65 NW 5 7 30.52 1033 10 16 0.00 0.00
4:55 am 04:55 Clear 5 -15 -4 -19.8 67 67 Calm 30.52 1033 10 16 0.00 0.00
5:15 am 05:15 Clear 5 -15 -4 -20 66 66 NW 3 6 30.53 1034 10 16 0.00 0.00
5:35 am 05:35 Clear 4 -15.3 -4 -19.9 68 68 NNW 3 6 30.54 1034 10 16 0.00 0.00
5:55 am 05:55 Clear 4 -15.4 -4 -20.2 67 67 Calm 30.54 1034 10 16 0.00 0.00
6:15 am 06:15 Clear 4 -15.5 -5 -20.6 65 65 Calm 30.55 1035 10 16 0.00 0.00
6:35 am 06:35 Clear 4 -15.7 -5 -20.3 68 68 Calm 30.55 1035 10 16 0.00 0.00
6:55 am 06:55 Clear 4 -15.6 -3 -19.7 71 71 Calm 30.56 1035 10 16 0.00 0.00
7:15 am 07:15 Clear 3 -16.2 -3 -19.4 77 77 Calm 30.57 1035 10 16 0.00 0.00
7:35 am 07:35 Clear 3 -16.3 -2 -19.1 79 79 NW 3 6 30.57 1035 10 16 0.00 0.00
7:55 am 07:55 Sunny 2 -16.4 -2 -18.8 82 82 Calm 30.58 1036 10 16 0.00 0.00
8:15 am 08:15 Sunny 2 -16.5 -2 -18.7 83 83 Calm 30.59 1036 10 16 0.00 0.00
8:35 am 08:35 Sunny 4 -15.4 -3 -19.5 71 71 Calm 30.59 1036 10 16 0.00 0.00
8:55 am 08:55 Sunny 5 -15.2 -4 -19.9 68 68 WNW 3 6 30.59 1036 10 16 0.00 0.00
9:15 am 09:15 Sunny 5 -14.8 -3 -19.4 68 68 Calm 30.60 1036 10 16 0.00 0.00
9:35 am 09:35 Sunny 7 -13.9 -2 -18.8 67 67 E 3 6 30.60 1036 10 16 0.00 0.00
9:55 am 09:55 Sunny 7 -13.9 -2 -18.7 67 67 SSE 3 6 30.61 1036 10 16 0.00 0.00
10:15 am 10:15 Sunny 8 -13.1 -1 -18.1 66 66 S 3 6 30.60 1036 10 16 0.00 0.00
10:35 am 10:35 Sunny 9 -12.6 0 -17.9 65 65 S 3 6 30.60 1036 10 16 0.00 0.00
10:55 am 10:55 Sunny 12 -11.3 1 -17.3 62 62 S 3 6 30.60 1036 10 16 0.00 0.00
11:15 am 11:15 Sunny 13 -10.5 2 -16.7 61 61 S 3 6 30.60 1036 10 16 0.00 0.00
11:35 am 11:35 Sunny 14 -10 2 -16.8 58 58 S 3 6 30.59 1036 10 16 0.00 0.00
11:55 am 11:55 Sunny 15 -9.2 3 -16.2 57 57 Calm 30.58 1036 10 16 0.00 0.00
12:15 pm 12:15 Sunny 16 -8.8 2 -16.8 53 53 WSW 3 6 30.57 1035 10 16 0.00 0.00
12:35 pm 12:35 Sunny 17 -8.6 1 -17.2 50 50 S 5 7 30.56 1035 10 16 0.00 0.00
12:55 pm 12:55 Sunny 18 -7.8 2 -16.6 50 50 SE 6 9 30.55 1034 10 16 0.00 0.00
1:15 pm 13:15 Sunny 18 -7.9 1 -17.3 47 47 Calm 30.54 1034 10 16 0.00 0.00
1:35 pm 13:35 Sunny 19 -7.1 1 -17.2 45 45 WSW 3 6 30.53 1034 10 16 0.00 0.00
1:55 pm 13:55 Sunny 19 -7.3 -1 -18.2 42 42 WSW 3 6 30.52 1033 10 16 0.00 0.00
2:15 pm 14:15 Sunny 20 -6.6 0 -17.7 41 41 Calm 30.51 1033 10 16 0.00 0.00
2:35 pm 14:35 Sunny 20 -6.8 1 -17.3 43 43 Calm 30.50 1033 10 16 0.00 0.00
2:55 pm 14:55 Sunny 20 -6.5 0 -17.6 41 41 Calm 30.49 1033 10 16 0.00 0.00
3:15 pm 15:15 Sunny 21 -6.3 0 -18 39 39 W 5 7 30.49 1033 10 16 0.00 0.00
3:35 pm 15:35 Sunny 21 -6.1 0 -17.7 40 40 WNW 5 7 30.49 1033 10 16 0.00 0.00
3:55 pm 15:55 Sunny 21 -6 0 -17.7 39 39 WNW 5 7 30.48 1032 10 16 0.00 0.00
4:15 pm 16:15 Sunny 21 -5.9 0 -17.6 39 39 W 7 11 30.48 1032 10 16 0.00 0.00
4:35 pm 16:35 Sunny 21 -6 0 -17.6 40 40 WNW 5 7 30.48 1032 10 16 0.00 0.00
4:55 pm 16:55 Sunny 21 -6.1 0 -17.8 39 39 W 3 6 30.49 1033 10 16 0.00 0.00
5:15 pm 17:15 Sunny 21 -6.2 -1 -18.6 37 37 W 6 9 30.49 1033 10 16 0.00 0.00
5:35 pm 17:35 Sunny 19 -7.2 1 -17.5 44 44 W 3 6 30.50 1033 10 16 0.00 0.00
5:55 pm 17:55 Clear 19 -7.3 -1 -18.1 42 42 WNW 6 9 30.49 1032 10 16 0.00 0.00
6:15 pm 18:15 Clear 19 -7.2 1 -17.3 45 45 NW 3 6 30.49 1032 10 16 0.00 0.00
6:35 pm 18:35 Clear 14 -10.1 5 -15.1 67 67 Calm 30.50 1033 10 16 0.00 0.00
6:55 pm 18:55 Clear 15 -9.3 5 -15.1 63 63 ENE 3 6 30.50 1033 10 16 0.00 0.00
7:15 pm 19:15 Clear 15 -9.6 5 -14.9 66 66 Calm 30.49 1033 10 16 0.00 0.00
7:35 pm 19:35 Clear 13 -10.5 5 -15.1 69 69 Calm 30.50 1033 10 16 0.00 0.00
7:55 pm 19:55 Clear 13 -10.8 4 -15.5 69 69 Calm 30.50 1033 10 16 0.00 0.00
8:15 pm 20:15 Clear 12 -11.3 5 -15.1 74 74 Calm 30.50 1033 10 16 0.00 0.00
8:35 pm 20:35 Clear 11 -11.8 5 -15.2 76 76 Calm 30.49 1032 10 16 0.00 0.00
8:55 pm 20:55 Clear 11 -11.9 4 -15.8 73 73 Calm 30.49 1033 10 16 0.00 0.00
9:15 pm 21:15 Clear 10 -12.2 4 -15.8 75 75 Calm 30.49 1033 10 16 0.00 0.00
9:35 pm 21:35 Clear 10 -12.5 3 -15.9 76 76 Calm 30.49 1033 10 16 0.00 0.00
9:55 pm 21:55 Clear 9 -12.6 3 -15.9 77 77 Calm 30.48 1032 10 16 0.00 0.00
10:15 pm 22:15 Clear 9 -13 4 -15.7 80 80 N 3 6 30.47 1032 10 16 0.00 0.00
10:35 pm 22:35 Clear 8 -13.3 4 -15.4 84 84 Calm 30.47 1032 10 16 0.00 0.00
10:55 pm 22:55 Clear 8 -13.4 4 -15.5 84 84 Calm 30.46 1032 10 16 0.00 0.00
11:15 pm 23:15 Clear 8 -13.3 4 -15.3 85 85 Calm 30.46 1032 10 16 0.00 0.00
11:35 pm 23:35 Clear 8 -13.5 4 -15.6 84 84 Calm 30.45 1031 10 16 0.00 0.00
11:55 pm 23:55 Clear 8 -13.6 4 -15.5 86 86 Calm 30.45 1031 10 16 0.00 0.00

Powered by AerisWeather